Погода в Дагестанских Огнях

Россия / Республика Дагестан     42°06′54″N   48°11′38″E
темп.,
°C
ветер,
м/с
пор.,
м/с
влажн.,
%
обл.,
%
осадки,
мм/ч
давл.,
гПа
погр.,
м
11 апреля, вс
вс1100:00+9зсз22736 0.0 102025
03:00+8сз22785 0.0 102023
06:00+8сз117541 0.0 102130
09:00+13в225758 0.0 1019341
12:00+15в235187 0.0 1018463
15:00+15вюв2253100 0.0 1016359
18:00+13ю236287 0.0 1015119
21:00+12ююв116781 0.0 101511
12 апреля, пн
пн1200:00+11ююв3371100 0.0 101581
03:00+11ю1170100 0.0 101511
06:00+12с1167100 0.0 101614
09:00+13с4460100 0.0 1018373
12:00+15с77530 0.0 1018726
15:00+16с67540 0.0 1018672
18:00+13ссз46650 0.0 1020352
21:00+11сз22710 0.0 102127
13 апреля, вт
вт1300:00+10с11770 0.0 102111
03:00+10зсз018198 0.0 102110
06:00+11с1175100 0.0 102211
09:00+14св2262100 0.0 1022312
12:00+17в35500 0.0 1020715
15:00+16вюв45571 0.0 1019444
18:00+14ююв22620 0.0 1019128
21:00+13ююз3358100 0.0 101925
14 апреля, ср
ср1400:00+13з1149100 0.0 101611
03:00+11ююз1158100 0.0 101411
06:00+12ююз1166100 0.2 101411
09:00+14с4452100 0.2 1014357
12:00+16с654886 0.0 1013633
15:00+15с675587 0.2 1013677
18:00+14ссз71364100 0.6 1015586
21:00+13зюз1170100 0.9 101616
15 апреля, чт
чт1500:00+13сз226099 0.0 101513
03:00+11зсз33638 0.0 101515
06:00+12з016041 0.0 101510
09:00+16ссв22455 0.0 1015642
12:00+17ссв33452 0.0 1014794
15:00+17ссв34505 0.0 1014749
18:00+16ссз22535 0.0 101464
21:00+14з11644 0.0 101412